User: anonymous   Login
Location: Unspecified
(0.0000°N, 0.0000°E)
Time: 11:34:15
(UTC+00:00)
Language:

Diademe D-1C - Orbit

View from above orbital plane
View from above orbital plane
View from above satellite
View from above satellite

Ground track
Ground track

The orbit data is extracted from the following two-line orbital elements,

1  2674U 67011A   17328.58772764 +.00000244 +00000-0 +56142-4 0  9993
2  2674 039.9247 060.2454 0267265 061.8092 300.9405 14.54455342633246
Epoch (UTC): 24 November 2017 14:06:19
Eccentricity: 0.0267265
inclination: 39.9247°
perigee height: 521 km
apogee height: 900 km
right ascension of ascending node: 60.2454°
argument of perigee: 61.8092°
revolutions per day: 14.54455342
mean anomaly at epoch: 300.9405°
orbit number at epoch: 63324

The dashed part of the orbit path shows where the satellite is in the earth's shadow,  

DLR